Tracking 30970 objects as of 3-Jul-2025
HD Live streaming from Space Station
objects crossing your sky now

USA 40 R/B DEB

Track USA 40 R/B DEB now!
10-day predictions


NORAD ID: 23362
Int'l Code: 1989-061AJ
Perigee: 576.5 km
Apogee: 5,532.8 km
Inclination: 56.9 °
Period: 151.8 minutes
Semi major axis: 9425 km
RCS: Unknown
Launch date: August 8, 1989
Source: United States (US)
Launch site: AIR FORCE EASTERN TEST RANGE (AFETR)

Note: This is SATELLITE DEBRIS
Your satellite tracking list
Your tracking list is empty




NASA's NSSDC Master Catalog

Two Line Element Set (TLE):
1 23362U 89061AJ  25177.07027007  .00005727  00000-0  57704-2 0  9991
2 23362  56.9039 321.4297 2629132 223.7187 112.2971  9.48716329214248
Source of the keplerian elements: AFSPC